GFSMA_prec_precacc12_162.txt.gz
Total_Precipitation_Accumulation
0.09 0.07 0.04 0.04 0.03 0.03 0.02 0.02 0.00 0.00 0.00 0.00 0.00 0.00 0.00 0.00 0.00 0.00 0.00 0.00 0.00 0.00 0.00 0.00 0.01 0.00 0.00 0.00 0.00 0.00 0.00 0.00 0.00 0.00 0.00 0.00 0.00 0.00 0.00 0.00 0.00 0.00 0.01
0.10 0.09 0.07 0.05 0.04 0.04 0.02 0.02 0.02 0.01 0.01 0.01 0.00 0.00 0.00 0.00 0.00 0.00 0.00 0.00 0.00 0.00 0.00 0.00 0.00 0.01 0.01 0.00 0.00 0.00 0.00 0.00 0.00 0.00 0.00 0.00 0.01 0.00 0.00 0.02 0.03 0.03 0.03
0.10 0.12 0.11 0.11 0.07 0.09 0.12 0.09 0.05 0.03 0.04 0.03 0.02 0.02 0.00 0.00 0.00 0.00 0.00 0.00 0.00 0.00 0.00 0.00 0.00 0.00 0.00 0.01 0.01 0.01 0.01 0.04 0.07 0.06 0.05 0.08 0.07 0.05 0.05 0.04 0.05 0.02 0.01
0.04 0.09 0.12 0.09 0.21 0.27 0.31 0.24 0.21 0.11 0.06 0.08 0.06 0.04 0.03 0.01 0.01 0.01 0.00 0.00 0.00 0.00 0.00 0.00 0.00 0.00 0.00 0.00 0.00 0.01 0.02 0.05 0.06 0.04 0.04 0.07 0.04 0.02 0.01 0.01 0.01 0.01 0.01
0.01 0.03 0.07 0.11 0.18 0.28 0.33 0.31 0.33 0.28 0.21 0.22 0.25 0.18 0.07 0.03 0.04 0.05 0.04 0.00 0.00 0.00 0.00 0.00 0.00 0.00 0.00 0.00 0.00 0.01 0.01 0.01 0.02 0.02 0.02 0.03 0.02 0.02 0.00 0.00 0.01 0.01 0.00
0.00 0.01 0.04 0.06 0.10 0.13 0.19 0.23 0.23 0.28 0.27 0.30 0.27 0.24 0.22 0.20 0.17 0.13 0.12 0.09 0.03 0.01 0.00 0.00 0.00 0.00 0.00 0.00 0.00 0.00 0.00 0.00 0.00 0.01 0.02 0.02 0.02 0.01 0.00 0.00 0.01 0.00 0.00
0.00 0.00 0.01 0.04 0.06 0.07 0.08 0.13 0.18 0.21 0.21 0.23 0.27 0.26 0.28 0.47 0.67 0.69 0.57 0.47 0.24 0.12 0.11 0.01 0.00 0.00 0.00 0.00 0.00 0.00 0.00 0.00 0.00 0.00 0.01 0.01 0.02 0.01 0.01 0.00 0.00 0.01 0.01
0.00 0.00 0.00 0.01 0.03 0.05 0.06 0.09 0.15 0.16 0.13 0.13 0.18 0.18 0.16 0.14 0.25 0.41 0.44 0.31 0.24 0.19 0.16 0.15 0.08 0.05 0.01 0.00 0.00 0.00 0.00 0.00 0.00 0.00 0.00 0.01 0.03 0.02 0.01 0.01 0.02 0.02 0.01
0.00 0.00 0.00 0.00 0.01 0.04 0.05 0.06 0.09 0.14 0.15 0.10 0.12 0.19 0.11 0.03 0.02 0.02 0.05 0.09 0.11 0.10 0.09 0.11 0.13 0.13 0.07 0.01 0.00 0.00 0.00 0.00 0.00 0.00 0.00 0.01 0.02 0.03 0.04 0.07 0.08 0.06 0.03
0.00 0.00 0.00 0.00 0.00 0.01 0.02 0.05 0.09 0.11 0.14 0.16 0.13 0.13 0.11 0.08 0.05 0.02 0.01 0.01 0.02 0.02 0.04 0.05 0.04 0.05 0.07 0.05 0.03 0.01 0.01 0.00 0.00 0.00 0.00 0.01 0.02 0.03 0.06 0.11 0.11 0.10 0.09
0.00 0.00 0.00 0.00 0.00 0.00 0.00 0.01 0.05 0.08 0.11 0.17 0.17 0.12 0.18 0.28 0.25 0.16 0.10 0.03 0.01 0.02 0.02 0.03 0.03 0.02 0.02 0.02 0.02 0.02 0.03 0.02 0.01 0.00 0.00 0.00 0.02 0.04 0.07 0.10 0.16 0.17 0.14
0.00 0.00 0.00 0.00 0.00 0.00 0.00 0.00 0.01 0.04 0.07 0.11 0.14 0.13 0.12 0.14 0.22 0.28 0.31 0.23 0.19 0.12 0.08 0.05 0.03 0.02 0.02 0.06 0.11 0.14 0.14 0.10 0.05 0.02 0.01 0.01 0.05 0.08 0.07 0.09 0.11 0.16 0.22
0.00 0.00 0.00 0.00 0.00 0.00 0.00 0.00 0.00 0.00 0.02 0.04 0.05 0.06 0.10 0.11 0.13 0.17 0.18 0.14 0.12 0.09 0.08 0.05 0.02 0.01 0.02 0.02 0.03 0.04 0.07 0.09 0.09 0.07 0.05 0.02 0.04 0.06 0.10 0.09 0.09 0.12 0.17
0.00 0.00 0.00 0.00 0.00 0.00 0.00 0.00 0.00 0.00 0.01 0.01 0.02 0.02 0.02 0.02 0.04 0.08 0.12 0.14 0.11 0.06 0.02 0.01 0.01 0.01 0.02 0.02 0.03 0.05 0.03 0.02 0.03 0.05 0.06 0.06 0.07 0.07 0.10 0.12 0.15 0.15 0.15
0.00 0.00 0.00 0.00 0.00 0.00 0.00 0.00 0.00 0.00 0.01 0.01 0.01 0.02 0.02 0.02 0.03 0.03 0.05 0.10 0.16 0.14 0.05 0.01 0.03 0.02 0.04 0.06 0.09 0.11 0.10 0.08 0.09 0.07 0.06 0.05 0.04 0.03 0.02 0.01 0.01 0.02 0.02
0.00 0.00 0.00 0.00 0.00 0.00 0.00 0.00 0.00 0.00 0.00 0.00 0.01 0.01 0.01 0.02 0.02 0.02 0.03 0.06 0.12 0.20 0.19 0.04 0.01 0.01 0.02 0.08 0.10 0.14 0.12 0.11 0.07 0.04 0.03 0.04 0.05 0.05 0.03 0.02 0.01 0.01 0.01
0.00 0.00 0.00 0.00 0.00 0.00 0.00 0.00 0.00 0.00 0.00 0.00 0.00 0.01 0.00 0.02 0.02 0.02 0.03 0.02 0.03 0.06 0.09 0.04 0.00 0.00 0.01 0.02 0.04 0.08 0.07 0.06 0.04 0.04 0.06 0.07 0.07 0.05 0.04 0.03 0.03 0.03 0.03
0.00 0.00 0.00 0.00 0.00 0.00 0.00 0.00 0.00 0.00 0.00 0.00 0.00 0.01 0.01 0.02 0.03 0.04 0.05 0.04 0.05 0.06 0.09 0.02 0.01 0.01 0.01 0.02 0.05 0.07 0.07 0.06 0.04 0.08 0.13 0.11 0.11 0.11 0.09 0.08 0.10 0.12 0.12
0.00 0.00 0.00 0.00 0.00 0.00 0.00 0.00 0.00 0.00 0.00 0.00 0.00 0.00 0.00 0.00 0.00 0.02 0.03 0.02 0.02 0.05 0.06 0.06 0.03 0.08 0.09 0.11 0.17 0.19 0.20 0.20 0.18 0.21 0.25 0.22 0.18 0.17 0.17 0.22 0.26 0.28 0.27
0.00 0.00 0.00 0.00 0.00 0.00 0.00 0.00 0.00 0.00 0.00 0.00 0.00 0.00 0.00 0.00 0.00 0.01 0.03 0.04 0.04 0.05 0.06 0.07 0.07 0.22 0.28 0.23 0.26 0.22 0.18 0.13 0.10 0.11 0.12 0.11 0.12 0.13 0.17 0.19 0.21 0.20 0.17
0.00 0.00 0.00 0.00 0.00 0.00 0.00 0.00 0.00 0.00 0.00 0.00 0.00 0.00 0.00 0.00 0.00 0.01 0.02 0.03 0.06 0.09 0.13 0.15 0.18 0.32 0.37 0.34 0.29 0.25 0.21 0.14 0.14 0.11 0.08 0.13 0.20 0.28 0.39 0.50 0.46 0.44 0.37
0.00 0.00 0.00 0.00 0.00 0.00 0.02 0.02 0.01 0.00 0.00 0.00 0.00 0.00 0.00 0.01 0.01 0.02 0.03 0.05 0.13 0.16 0.15 0.16 0.18 0.23 0.22 0.21 0.21 0.23 0.25 0.26 0.27 0.25 0.30 0.35 0.41 0.47 0.50 0.51 0.57 0.55 0.51
0.00 0.00 0.00 0.00 0.00 0.00 0.01 0.01 0.01 0.00 0.00 0.00 0.00 0.00 0.00 0.01 0.02 0.02 0.05 0.07 0.08 0.12 0.16 0.20 0.26 0.31 0.32 0.32 0.35 0.41 0.51 0.65 0.69 0.56 0.42 0.45 0.52 0.64 0.64 0.59 0.59 0.48 0.39
0.00 0.00 0.00 0.00 0.00 0.00 0.00 0.01 0.01 0.00 0.00 0.01 0.01 0.01 0.01 0.02 0.06 0.07 0.07 0.08 0.09 0.12 0.18 0.20 0.22 0.21 0.17 0.13 0.13 0.20 0.25 0.32 0.42 0.42 0.36 0.34 0.40 0.53 0.61 0.63 0.63 0.49 0.41
0.00 0.00 0.00 0.00 0.00 0.00 0.01 0.01 0.01 0.00 0.01 0.01 0.01 0.01 0.01 0.01 0.04 0.05 0.02 0.03 0.04 0.05 0.09 0.10 0.09 0.11 0.13 0.13 0.13 0.13 0.18 0.22 0.28 0.30 0.28 0.26 0.27 0.30 0.34 0.34 0.30 0.29 0.24
0.00 0.00 0.00 0.00 0.00 0.00 0.01 0.01 0.01 0.01 0.01 0.02 0.02 0.02 0.06 0.04 0.05 0.05 0.03 0.04 0.06 0.06 0.06 0.08 0.09 0.12 0.15 0.18 0.23 0.20 0.22 0.23 0.23 0.20 0.14 0.15 0.15 0.13 0.14 0.13 0.14 0.13 0.10

GFSMA_prec_precacc12_165.txt.gz
Total_Precipitation_Accumulation
0.09 0.08 0.06 0.08 0.07 0.09 0.09 0.10 0.06 0.03 0.02 0.01 0.00 0.00 0.00 0.00 0.00 0.00 0.00 0.00 0.00 0.00 0.00 0.00 0.02 0.01 0.00 0.00 0.00 0.00 0.00 0.00 0.00 0.00 0.00 0.00 0.00 0.00 0.00 0.00 0.00 0.01 0.01
0.05 0.07 0.06 0.05 0.05 0.06 0.05 0.08 0.09 0.05 0.02 0.04 0.01 0.00 0.00 0.00 0.00 0.00 0.00 0.00 0.00 0.00 0.00 0.00 0.00 0.01 0.01 0.01 0.00 0.00 0.00 0.00 0.00 0.00 0.00 0.00 0.01 0.00 0.00 0.02 0.02 0.03 0.03
0.01 0.03 0.05 0.06 0.06 0.08 0.14 0.13 0.08 0.07 0.04 0.03 0.03 0.05 0.03 0.01 0.00 0.00 0.00 0.00 0.00 0.00 0.00 0.00 0.00 0.00 0.01 0.01 0.02 0.02 0.02 0.03 0.05 0.04 0.04 0.08 0.09 0.09 0.06 0.04 0.03 0.02 0.02
0.00 0.00 0.02 0.03 0.05 0.09 0.16 0.18 0.16 0.12 0.08 0.08 0.06 0.04 0.05 0.08 0.04 0.02 0.00 0.00 0.00 0.00 0.00 0.00 0.00 0.00 0.00 0.00 0.01 0.01 0.03 0.04 0.05 0.04 0.05 0.07 0.05 0.03 0.01 0.01 0.01 0.01 0.01
0.00 0.00 0.00 0.01 0.03 0.07 0.12 0.15 0.19 0.22 0.22 0.22 0.22 0.17 0.08 0.05 0.09 0.10 0.08 0.05 0.02 0.01 0.00 0.00 0.00 0.00 0.00 0.00 0.00 0.01 0.02 0.02 0.02 0.02 0.02 0.03 0.03 0.03 0.01 0.00 0.01 0.01 0.00
0.00 0.00 0.00 0.00 0.02 0.04 0.06 0.10 0.13 0.18 0.23 0.28 0.29 0.23 0.22 0.21 0.20 0.17 0.17 0.14 0.09 0.10 0.13 0.11 0.05 0.00 0.00 0.00 0.00 0.00 0.00 0.01 0.01 0.01 0.02 0.02 0.02 0.02 0.01 0.01 0.01 0.01 0.00
0.00 0.00 0.00 0.00 0.00 0.02 0.03 0.06 0.09 0.12 0.15 0.20 0.30 0.31 0.29 0.49 0.69 0.70 0.59 0.51 0.44 0.40 0.40 0.29 0.14 0.04 0.01 0.00 0.00 0.00 0.00 0.00 0.00 0.01 0.01 0.02 0.03 0.02 0.01 0.00 0.00 0.00 0.00
0.00 0.00 0.00 0.00 0.00 0.00 0.02 0.04 0.07 0.09 0.08 0.10 0.16 0.19 0.18 0.16 0.27 0.41 0.45 0.31 0.24 0.19 0.17 0.20 0.26 0.21 0.10 0.04 0.01 0.00 0.00 0.00 0.00 0.01 0.02 0.02 0.04 0.02 0.01 0.01 0.01 0.02 0.01
0.00 0.00 0.00 0.00 0.00 0.00 0.00 0.01 0.04 0.06 0.06 0.05 0.07 0.14 0.10 0.03 0.02 0.03 0.06 0.10 0.11 0.11 0.09 0.11 0.14 0.18 0.17 0.11 0.05 0.02 0.01 0.00 0.00 0.00 0.00 0.01 0.02 0.04 0.04 0.06 0.07 0.06 0.04
0.00 0.00 0.00 0.00 0.00 0.00 0.00 0.00 0.01 0.04 0.06 0.08 0.06 0.06 0.08 0.08 0.07 0.04 0.03 0.03 0.03 0.03 0.04 0.05 0.05 0.07 0.10 0.10 0.08 0.07 0.07 0.06 0.02 0.00 0.00 0.01 0.02 0.02 0.03 0.07 0.09 0.11 0.09
0.00 0.00 0.00 0.00 0.00 0.00 0.00 0.00 0.00 0.00 0.02 0.08 0.09 0.05 0.05 0.10 0.13 0.13 0.07 0.03 0.02 0.01 0.02 0.03 0.03 0.02 0.02 0.02 0.02 0.02 0.04 0.03 0.02 0.01 0.00 0.00 0.02 0.03 0.04 0.08 0.15 0.16 0.15
0.00 0.00 0.00 0.00 0.00 0.00 0.00 0.00 0.00 0.00 0.00 0.01 0.03 0.06 0.06 0.05 0.07 0.10 0.14 0.11 0.14 0.11 0.09 0.06 0.04 0.03 0.03 0.06 0.11 0.14 0.14 0.10 0.05 0.02 0.01 0.01 0.05 0.07 0.06 0.09 0.12 0.17 0.22
0.00 0.00 0.00 0.00 0.00 0.00 0.00 0.00 0.01 0.01 0.00 0.00 0.00 0.00 0.03 0.05 0.08 0.10 0.11 0.10 0.09 0.09 0.08 0.05 0.04 0.03 0.04 0.03 0.03 0.04 0.07 0.09 0.09 0.07 0.05 0.04 0.08 0.11 0.11 0.09 0.08 0.11 0.16
0.00 0.00 0.00 0.00 0.00 0.00 0.00 0.00 0.01 0.02 0.01 0.01 0.01 0.00 0.00 0.01 0.02 0.03 0.04 0.05 0.06 0.04 0.02 0.01 0.00 0.00 0.01 0.01 0.02 0.03 0.02 0.01 0.03 0.05 0.06 0.07 0.09 0.11 0.12 0.12 0.15 0.18 0.19
0.00 0.00 0.00 0.00 0.00 0.00 0.00 0.00 0.00 0.01 0.01 0.01 0.01 0.01 0.01 0.01 0.02 0.02 0.02 0.03 0.04 0.03 0.01 0.00 0.00 0.00 0.00 0.02 0.03 0.03 0.03 0.04 0.07 0.07 0.06 0.06 0.05 0.03 0.02 0.02 0.02 0.03 0.05
0.00 0.00 0.00 0.00 0.00 0.00 0.00 0.00 0.00 0.00 0.00 0.00 0.00 0.00 0.01 0.01 0.01 0.02 0.03 0.03 0.05 0.06 0.04 0.00 0.00 0.00 0.00 0.03 0.03 0.04 0.06 0.08 0.06 0.03 0.03 0.04 0.05 0.05 0.03 0.02 0.02 0.04 0.05
0.00 0.00 0.00 0.00 0.00 0.00 0.00 0.00 0.00 0.00 0.00 0.00 0.00 0.00 0.00 0.00 0.01 0.02 0.02 0.01 0.02 0.04 0.04 0.00 0.00 0.00 0.00 0.01 0.01 0.02 0.04 0.04 0.03 0.03 0.06 0.07 0.07 0.05 0.04 0.05 0.05 0.04 0.04
0.00 0.00 0.00 0.00 0.00 0.00 0.00 0.00 0.00 0.00 0.00 0.00 0.01 0.01 0.01 0.01 0.02 0.03 0.04 0.03 0.04 0.06 0.07 0.02 0.01 0.00 0.00 0.00 0.01 0.02 0.02 0.02 0.03 0.08 0.13 0.13 0.12 0.12 0.11 0.10 0.09 0.09 0.08
0.00 0.00 0.00 0.00 0.00 0.00 0.00 0.00 0.00 0.00 0.00 0.00 0.00 0.00 0.00 0.00 0.00 0.00 0.00 0.00 0.01 0.03 0.04 0.04 0.02 0.02 0.02 0.01 0.01 0.01 0.02 0.09 0.12 0.19 0.27 0.25 0.22 0.19 0.17 0.15 0.14 0.12 0.11
0.00 0.00 0.00 0.00 0.00 0.00 0.00 0.00 0.00 0.00 0.00 0.00 0.00 0.00 0.00 0.00 0.00 0.00 0.00 0.00 0.00 0.01 0.03 0.04 0.03 0.03 0.05 0.04 0.07 0.04 0.03 0.05 0.06 0.11 0.14 0.15 0.17 0.18 0.21 0.20 0.21 0.19 0.20
0.00 0.00 0.00 0.00 0.00 0.00 0.00 0.00 0.00 0.00 0.00 0.00 0.00 0.00 0.00 0.00 0.01 0.01 0.00 0.00 0.01 0.02 0.03 0.07 0.07 0.07 0.07 0.09 0.09 0.12 0.14 0.12 0.14 0.11 0.09 0.15 0.23 0.31 0.42 0.52 0.47 0.46 0.43
0.00 0.00 0.00 0.00 0.00 0.00 0.01 0.02 0.01 0.00 0.00 0.00 0.00 0.00 0.00 0.01 0.01 0.02 0.02 0.02 0.02 0.02 0.02 0.06 0.09 0.11 0.13 0.15 0.17 0.19 0.22 0.24 0.25 0.25 0.30 0.36 0.44 0.51 0.55 0.56 0.64 0.59 0.57
0.00 0.00 0.00 0.00 0.00 0.00 0.01 0.02 0.01 0.00 0.00 0.00 0.00 0.00 0.00 0.01 0.01 0.01 0.04 0.04 0.05 0.05 0.05 0.06 0.15 0.25 0.25 0.24 0.28 0.35 0.48 0.64 0.68 0.55 0.44 0.49 0.58 0.70 0.72 0.69 0.67 0.54 0.48
0.00 0.00 0.00 0.00 0.00 0.00 0.00 0.01 0.01 0.00 0.00 0.00 0.01 0.01 0.01 0.01 0.02 0.02 0.04 0.07 0.09 0.12 0.18 0.20 0.22 0.20 0.15 0.12 0.10 0.13 0.18 0.26 0.36 0.38 0.35 0.38 0.43 0.55 0.63 0.67 0.74 0.64 0.58
0.00 0.00 0.00 0.00 0.00 0.00 0.00 0.01 0.00 0.00 0.00 0.01 0.01 0.01 0.01 0.00 0.03 0.03 0.01 0.03 0.04 0.05 0.09 0.09 0.08 0.07 0.07 0.07 0.08 0.07 0.12 0.19 0.26 0.29 0.28 0.27 0.27 0.31 0.35 0.36 0.34 0.35 0.31
0.00 0.00 0.00 0.00 0.00 0.00 0.01 0.01 0.00 0.00 0.00 0.01 0.01 0.01 0.04 0.02 0.03 0.03 0.02 0.03 0.04 0.04 0.03 0.03 0.04 0.06 0.07 0.11 0.16 0.17 0.20 0.23 0.23 0.20 0.14 0.15 0.15 0.13 0.14 0.13 0.15 0.14 0.10

GFSMA_prec_precacc12_168.txt.gz
Total_Precipitation_Accumulation
0.02 0.04 0.05 0.09 0.09 0.14 0.15 0.18 0.15 0.09 0.07 0.02 0.00 0.00 0.00 0.00 0.00 0.00 0.00 0.00 0.00 0.00 0.00 0.00 0.02 0.02 0.01 0.00 0.00 0.00 0.00 0.00 0.00 0.00 0.00 0.00 0.00 0.00 0.00 0.00 0.01 0.01 0.01
0.00 0.01 0.02 0.03 0.04 0.06 0.07 0.12 0.16 0.13 0.12 0.13 0.05 0.02 0.00 0.00 0.00 0.00 0.00 0.00 0.00 0.00 0.00 0.00 0.00 0.01 0.02 0.02 0.01 0.00 0.00 0.00 0.00 0.00 0.00 0.00 0.00 0.00 0.00 0.02 0.03 0.03 0.04
0.00 0.00 0.01 0.02 0.03 0.04 0.07 0.11 0.11 0.14 0.10 0.10 0.11 0.15 0.11 0.05 0.01 0.00 0.00 0.00 0.00 0.00 0.00 0.00 0.00 0.00 0.01 0.02 0.05 0.05 0.03 0.02 0.01 0.02 0.03 0.06 0.08 0.09 0.06 0.03 0.04 0.03 0.02
0.00 0.00 0.00 0.00 0.01 0.02 0.04 0.06 0.07 0.07 0.06 0.08 0.07 0.08 0.11 0.18 0.16 0.09 0.04 0.01 0.00 0.00 0.00 0.00 0.00 0.00 0.00 0.00 0.00 0.03 0.08 0.05 0.03 0.03 0.04 0.07 0.05 0.03 0.02 0.01 0.03 0.03 0.01
0.00 0.00 0.00 0.00 0.00 0.02 0.04 0.05 0.05 0.07 0.08 0.12 0.14 0.16 0.10 0.08 0.15 0.19 0.16 0.11 0.04 0.02 0.01 0.01 0.02 0.00 0.00 0.00 0.00 0.01 0.03 0.03 0.03 0.02 0.02 0.03 0.03 0.03 0.02 0.01 0.02 0.02 0.01
0.00 0.00 0.00 0.00 0.00 0.00 0.01 0.04 0.05 0.06 0.09 0.12 0.19 0.20 0.22 0.24 0.22 0.20 0.25 0.22 0.16 0.15 0.15 0.13 0.10 0.05 0.02 0.00 0.00 0.00 0.00 0.01 0.02 0.02 0.02 0.02 0.02 0.02 0.01 0.00 0.01 0.01 0.00
0.00 0.00 0.00 0.00 0.00 0.00 0.00 0.01 0.04 0.07 0.06 0.07 0.16 0.22 0.27 0.50 0.73 0.74 0.64 0.55 0.49 0.47 0.48 0.33 0.17 0.07 0.02 0.01 0.00 0.00 0.00 0.00 0.00 0.02 0.01 0.02 0.02 0.02 0.01 0.00 0.00 0.00 0.00
0.00 0.00 0.00 0.00 0.00 0.00 0.00 0.00 0.01 0.04 0.05 0.05 0.08 0.08 0.10 0.15 0.28 0.41 0.44 0.31 0.24 0.25 0.21 0.23 0.28 0.21 0.10 0.04 0.02 0.01 0.00 0.00 0.00 0.01 0.02 0.02 0.03 0.02 0.01 0.00 0.00 0.01 0.00
0.00 0.00 0.00 0.00 0.00 0.00 0.00 0.00 0.00 0.01 0.03 0.03 0.04 0.07 0.04 0.02 0.03 0.04 0.07 0.10 0.10 0.11 0.11 0.13 0.15 0.18 0.17 0.11 0.05 0.03 0.02 0.01 0.01 0.01 0.01 0.02 0.03 0.04 0.02 0.02 0.03 0.04 0.04
0.00 0.00 0.00 0.00 0.00 0.00 0.00 0.00 0.00 0.00 0.00 0.01 0.03 0.04 0.05 0.06 0.07 0.05 0.06 0.09 0.09 0.07 0.08 0.07 0.07 0.11 0.14 0.11 0.11 0.10 0.11 0.12 0.08 0.01 0.00 0.01 0.03 0.02 0.02 0.04 0.06 0.08 0.08
0.00 0.00 0.00 0.01 0.01 0.01 0.01 0.01 0.01 0.01 0.01 0.01 0.01 0.02 0.03 0.06 0.06 0.08 0.03 0.01 0.03 0.05 0.07 0.05 0.03 0.03 0.04 0.04 0.03 0.03 0.06 0.05 0.05 0.02 0.00 0.01 0.03 0.03 0.03 0.06 0.10 0.13 0.09
0.00 0.00 0.00 0.00 0.00 0.00 0.00 0.00 0.00 0.00 0.01 0.01 0.02 0.03 0.02 0.03 0.04 0.05 0.05 0.02 0.02 0.01 0.02 0.04 0.05 0.05 0.06 0.09 0.13 0.15 0.14 0.11 0.06 0.03 0.03 0.05 0.09 0.08 0.06 0.06 0.12 0.17 0.17
0.00 0.00 0.00 0.00 0.00 0.00 0.00 0.00 0.01 0.01 0.01 0.02 0.04 0.03 0.01 0.01 0.04 0.06 0.08 0.07 0.05 0.03 0.02 0.01 0.03 0.04 0.05 0.06 0.06 0.05 0.08 0.11 0.09 0.07 0.07 0.10 0.12 0.15 0.15 0.14 0.12 0.13 0.16
0.00 0.00 0.00 0.00 0.00 0.00 0.00 0.00 0.01 0.01 0.02 0.03 0.04 0.05 0.02 0.00 0.01 0.02 0.02 0.03 0.02 0.01 0.01 0.00 0.00 0.00 0.00 0.01 0.02 0.03 0.02 0.01 0.02 0.04 0.06 0.07 0.09 0.11 0.14 0.16 0.19 0.22 0.25
0.00 0.00 0.00 0.00 0.00 0.00 0.00 0.00 0.00 0.01 0.02 0.02 0.03 0.03 0.02 0.01 0.01 0.01 0.01 0.01 0.02 0.01 0.00 0.00 0.00 0.00 0.00 0.00 0.01 0.02 0.01 0.01 0.01 0.02 0.04 0.04 0.04 0.03 0.02 0.02 0.02 0.03 0.06
0.00 0.00 0.00 0.00 0.00 0.00 0.00 0.00 0.00 0.00 0.00 0.00 0.00 0.00 0.00 0.01 0.01 0.02 0.03 0.03 0.05 0.06 0.03 0.00 0.00 0.00 0.00 0.00 0.00 0.00 0.00 0.01 0.02 0.02 0.02 0.03 0.05 0.05 0.03 0.02 0.02 0.04 0.06
0.00 0.00 0.00 0.00 0.00 0.00 0.00 0.00 0.00 0.01 0.00 0.00 0.00 0.00 0.00 0.00 0.01 0.01 0.02 0.01 0.02 0.04 0.03 0.00 0.00 0.00 0.00 0.00 0.00 0.00 0.00 0.01 0.02 0.02 0.04 0.07 0.06 0.04 0.03 0.03 0.04 0.04 0.05
0.00 0.00 0.00 0.00 0.00 0.00 0.00 0.00 0.00 0.00 0.00 0.00 0.01 0.01 0.01 0.02 0.02 0.02 0.03 0.03 0.03 0.04 0.05 0.01 0.00 0.00 0.00 0.00 0.00 0.00 0.00 0.00 0.01 0.01 0.03 0.04 0.05 0.07 0.09 0.08 0.09 0.09 0.08
0.00 0.00 0.00 0.00 0.00 0.00 0.00 0.00 0.00 0.00 0.00 0.00 0.00 0.00 0.00 0.00 0.00 0.00 0.00 0.00 0.00 0.01 0.02 0.01 0.00 0.01 0.01 0.01 0.01 0.01 0.01 0.01 0.01 0.02 0.06 0.09 0.13 0.15 0.15 0.14 0.14 0.12 0.10
0.00 0.00 0.00 0.00 0.00 0.00 0.00 0.00 0.00 0.00 0.00 0.00 0.00 0.00 0.00 0.00 0.00 0.00 0.00 0.00 0.00 0.00 0.00 0.01 0.01 0.01 0.03 0.03 0.05 0.03 0.02 0.02 0.02 0.04 0.06 0.10 0.13 0.17 0.20 0.20 0.21 0.18 0.17
0.00 0.00 0.00 0.00 0.00 0.00 0.00 0.00 0.00 0.00 0.00 0.00 0.00 0.00 0.00 0.01 0.01 0.01 0.00 0.00 0.00 0.01 0.02 0.02 0.01 0.01 0.01 0.03 0.03 0.04 0.05 0.05 0.09 0.08 0.07 0.13 0.20 0.29 0.41 0.51 0.46 0.43 0.41
0.00 0.00 0.00 0.00 0.00 0.00 0.01 0.01 0.01 0.00 0.00 0.00 0.00 0.00 0.00 0.01 0.01 0.02 0.02 0.02 0.01 0.01 0.01 0.02 0.02 0.03 0.03 0.05 0.05 0.08 0.14 0.18 0.21 0.21 0.28 0.34 0.42 0.50 0.54 0.56 0.61 0.56 0.56
0.00 0.00 0.00 0.00 0.00 0.00 0.01 0.01 0.01 0.00 0.00 0.00 0.00 0.00 0.00 0.00 0.01 0.01 0.02 0.02 0.02 0.03 0.02 0.02 0.03 0.06 0.08 0.10 0.15 0.24 0.36 0.55 0.64 0.52 0.42 0.47 0.55 0.66 0.70 0.68 0.64 0.52 0.47
0.00 0.00 0.00 0.00 0.00 0.00 0.00 0.01 0.01 0.00 0.00 0.00 0.00 0.00 0.00 0.00 0.01 0.01 0.00 0.00 0.01 0.02 0.10 0.16 0.19 0.18 0.14 0.10 0.07 0.09 0.12 0.20 0.29 0.28 0.24 0.28 0.34 0.42 0.49 0.55 0.66 0.61 0.58
0.00 0.00 0.00 0.00 0.00 0.00 0.00 0.00 0.00 0.00 0.00 0.00 0.00 0.00 0.00 0.00 0.01 0.01 0.00 0.00 0.01 0.02 0.06 0.07 0.06 0.06 0.05 0.04 0.03 0.02 0.03 0.04 0.07 0.08 0.11 0.18 0.24 0.30 0.34 0.34 0.32 0.35 0.31
0.00 0.00 0.00 0.00 0.00 0.00 0.00 0.00 0.00 0.00 0.00 0.00 0.00 0.00 0.01 0.00 0.01 0.00 0.00 0.01 0.02 0.02 0.02 0.02 0.03 0.03 0.03 0.02 0.02 0.02 0.02 0.05 0.09 0.10 0.09 0.13 0.14 0.13 0.14 0.13 0.15 0.14 0.10

GFSMA_prec_precacc12_171.txt.gz
Total_Precipitation_Accumulation
0.01 0.03 0.04 0.07 0.09 0.15 0.17 0.21 0.19 0.14 0.13 0.10 0.07 0.03 0.00 0.00 0.00 0.00 0.00 0.00 0.00 0.00 0.00 0.00 0.01 0.02 0.01 0.00 0.00 0.00 0.00 0.00 0.00 0.00 0.00 0.00 0.00 0.00 0.00 0.00 0.01 0.01 0.01
0.00 0.00 0.01 0.02 0.02 0.04 0.06 0.11 0.16 0.15 0.16 0.18 0.10 0.12 0.09 0.05 0.02 0.00 0.00 0.00 0.00 0.00 0.00 0.00 0.00 0.01 0.02 0.02 0.01 0.00 0.00 0.00 0.00 0.00 0.00 0.00 0.00 0.00 0.00 0.01 0.03 0.04 0.04
0.00 0.00 0.00 0.00 0.01 0.02 0.05 0.08 0.09 0.13 0.10 0.14 0.16 0.21 0.25 0.18 0.14 0.09 0.05 0.01 0.00 0.00 0.00 0.00 0.00 0.00 0.01 0.02 0.06 0.06 0.03 0.01 0.01 0.00 0.01 0.03 0.06 0.08 0.05 0.03 0.03 0.02 0.02
0.00 0.00 0.00 0.00 0.00 0.00 0.02 0.04 0.05 0.06 0.05 0.07 0.07 0.11 0.16 0.27 0.27 0.19 0.16 0.10 0.02 0.00 0.01 0.01 0.00 0.00 0.00 0.00 0.00 0.03 0.08 0.05 0.02 0.02 0.02 0.04 0.04 0.03 0.02 0.01 0.03 0.02 0.02
0.00 0.00 0.00 0.00 0.00 0.00 0.00 0.02 0.04 0.05 0.05 0.05 0.06 0.10 0.11 0.14 0.21 0.29 0.27 0.22 0.13 0.07 0.02 0.02 0.03 0.03 0.01 0.00 0.00 0.01 0.03 0.03 0.04 0.02 0.01 0.01 0.02 0.03 0.01 0.01 0.02 0.01 0.01
0.00 0.00 0.00 0.00 0.00 0.00 0.00 0.00 0.01 0.04 0.06 0.07 0.09 0.09 0.09 0.11 0.18 0.23 0.33 0.37 0.34 0.28 0.21 0.16 0.11 0.08 0.08 0.04 0.00 0.00 0.00 0.02 0.03 0.03 0.01 0.01 0.01 0.01 0.01 0.00 0.01 0.00 0.00
0.00 0.00 0.00 0.00 0.00 0.00 0.00 0.00 0.00 0.01 0.03 0.05 0.11 0.08 0.06 0.10 0.34 0.57 0.62 0.59 0.58 0.56 0.62 0.46 0.24 0.10 0.07 0.06 0.02 0.01 0.00 0.00 0.02 0.03 0.03 0.04 0.03 0.02 0.00 0.00 0.00 0.00 0.00
0.00 0.00 0.00 0.00 0.00 0.00 0.00 0.00 0.00 0.00 0.00 0.03 0.05 0.06 0.06 0.05 0.05 0.05 0.20 0.27 0.22 0.32 0.33 0.39 0.43 0.28 0.13 0.05 0.03 0.02 0.01 0.00 0.00 0.02 0.04 0.04 0.07 0.06 0.02 0.01 0.01 0.01 0.00
0.00 0.00 0.00 0.00 0.00 0.00 0.00 0.00 0.00 0.00 0.00 0.00 0.02 0.04 0.03 0.02 0.03 0.03 0.04 0.09 0.11 0.12 0.12 0.11 0.16 0.22 0.18 0.11 0.07 0.04 0.04 0.04 0.02 0.01 0.02 0.05 0.07 0.10 0.05 0.04 0.03 0.04 0.03
0.00 0.00 0.00 0.00 0.00 0.00 0.00 0.00 0.00 0.00 0.00 0.00 0.01 0.02 0.03 0.05 0.06 0.05 0.07 0.14 0.15 0.15 0.16 0.13 0.11 0.16 0.20 0.16 0.15 0.14 0.16 0.16 0.13 0.02 0.01 0.05 0.08 0.08 0.07 0.12 0.11 0.11 0.07
0.00 0.00 0.00 0.01 0.01 0.01 0.01 0.01 0.01 0.01 0.01 0.01 0.01 0.02 0.03 0.04 0.05 0.07 0.03 0.01 0.03 0.07 0.12 0.12 0.09 0.07 0.05 0.04 0.02 0.03 0.07 0.07 0.07 0.02 0.01 0.05 0.09 0.10 0.13 0.17 0.20 0.20 0.17
0.00 0.00 0.00 0.00 0.00 0.00 0.00 0.00 0.00 0.00 0.01 0.01 0.03 0.03 0.03 0.04 0.05 0.06 0.07 0.02 0.02 0.01 0.01 0.02 0.04 0.06 0.06 0.05 0.03 0.05 0.08 0.10 0.10 0.05 0.09 0.06 0.10 0.10 0.11 0.12 0.17 0.21 0.21
0.00 0.00 0.00 0.00 0.00 0.00 0.00 0.00 0.01 0.01 0.01 0.02 0.04 0.05 0.04 0.03 0.05 0.08 0.08 0.05 0.04 0.02 0.02 0.00 0.02 0.04 0.05 0.06 0.05 0.02 0.02 0.05 0.07 0.08 0.13 0.15 0.14 0.16 0.15 0.15 0.15 0.16 0.17
0.00 0.00 0.01 0.00 0.00 0.00 0.00 0.00 0.01 0.01 0.02 0.02 0.04 0.08 0.07 0.04 0.03 0.02 0.02 0.02 0.02 0.00 0.01 0.00 0.00 0.00 0.00 0.01 0.02 0.02 0.02 0.01 0.01 0.01 0.04 0.07 0.08 0.11 0.13 0.14 0.17 0.20 0.22
0.00 0.00 0.00 0.00 0.00 0.00 0.00 0.00 0.00 0.01 0.02 0.02 0.03 0.04 0.05 0.04 0.02 0.01 0.01 0.00 0.01 0.01 0.00 0.00 0.00 0.00 0.00 0.00 0.00 0.01 0.01 0.00 0.00 0.00 0.00 0.01 0.01 0.01 0.01 0.02 0.02 0.03 0.05
0.00 0.00 0.00 0.00 0.00 0.00 0.00 0.00 0.00 0.00 0.00 0.01 0.00 0.00 0.00 0.01 0.01 0.02 0.03 0.04 0.06 0.08 0.04 0.00 0.00 0.00 0.00 0.00 0.00 0.00 0.00 0.00 0.00 0.00 0.00 0.00 0.00 0.01 0.02 0.01 0.02 0.04 0.06
0.00 0.00 0.00 0.00 0.00 0.00 0.00 0.00 0.00 0.01 0.00 0.00 0.00 0.00 0.00 0.00 0.00 0.00 0.01 0.02 0.03 0.05 0.03 0.00 0.00 0.00 0.00 0.00 0.00 0.00 0.00 0.00 0.00 0.00 0.00 0.01 0.01 0.01 0.02 0.03 0.04 0.04 0.03
0.00 0.00 0.00 0.00 0.00 0.00 0.00 0.00 0.00 0.00 0.00 0.00 0.01 0.01 0.01 0.02 0.02 0.02 0.02 0.02 0.02 0.02 0.02 0.01 0.00 0.00 0.00 0.00 0.00 0.00 0.00 0.00 0.01 0.01 0.02 0.02 0.03 0.04 0.05 0.06 0.07 0.07 0.06
0.00 0.00 0.00 0.00 0.00 0.00 0.00 0.00 0.00 0.00 0.00 0.00 0.00 0.00 0.00 0.00 0.00 0.00 0.00 0.00 0.00 0.00 0.00 0.00 0.00 0.00 0.00 0.00 0.00 0.00 0.00 0.01 0.01 0.02 0.06 0.05 0.05 0.06 0.09 0.10 0.11 0.10 0.08
0.00 0.00 0.00 0.00 0.00 0.00 0.00 0.00 0.00 0.00 0.00 0.00 0.00 0.00 0.00 0.00 0.00 0.00 0.00 0.00 0.00 0.00 0.00 0.01 0.00 0.00 0.00 0.00 0.02 0.02 0.01 0.01 0.02 0.03 0.03 0.06 0.09 0.11 0.14 0.15 0.18 0.16 0.16
0.00 0.00 0.00 0.00 0.00 0.00 0.00 0.00 0.00 0.00 0.00 0.00 0.00 0.00 0.00 0.01 0.01 0.01 0.00 0.00 0.00 0.01 0.01 0.01 0.01 0.01 0.00 0.01 0.01 0.01 0.03 0.02 0.04 0.03 0.02 0.04 0.07 0.13 0.29 0.41 0.36 0.36 0.37
0.00 0.00 0.00 0.00 0.00 0.00 0.00 0.01 0.00 0.00 0.00 0.00 0.00 0.00 0.00 0.01 0.01 0.02 0.02 0.01 0.01 0.00 0.00 0.01 0.01 0.01 0.01 0.01 0.00 0.00 0.01 0.02 0.05 0.04 0.07 0.12 0.22 0.31 0.38 0.41 0.50 0.49 0.50
0.00 0.00 0.00 0.00 0.00 0.00 0.00 0.01 0.01 0.00 0.00 0.00 0.00 0.00 0.00 0.00 0.00 0.01 0.02 0.01 0.01 0.01 0.01 0.00 0.00 0.00 0.00 0.01 0.01 0.02 0.14 0.21 0.22 0.15 0.17 0.29 0.36 0.43 0.46 0.47 0.50 0.42 0.35
0.00 0.00 0.00 0.00 0.00 0.00 0.00 0.00 0.01 0.00 0.00 0.00 0.00 0.00 0.00 0.00 0.00 0.00 0.00 0.00 0.00 0.00 0.00 0.00 0.01 0.01 0.04 0.05 0.04 0.02 0.02 0.05 0.11 0.14 0.13 0.18 0.20 0.21 0.26 0.33 0.42 0.40 0.39
0.00 0.00 0.00 0.00 0.00 0.00 0.00 0.00 0.00 0.00 0.00 0.00 0.00 0.00 0.00 0.00 0.00 0.01 0.00 0.00 0.00 0.00 0.01 0.00 0.01 0.00 0.01 0.01 0.02 0.02 0.01 0.01 0.01 0.01 0.01 0.04 0.05 0.09 0.12 0.13 0.16 0.23 0.24
0.00 0.00 0.00 0.00 0.00 0.00 0.00 0.00 0.00 0.00 0.00 0.00 0.00 0.00 0.00 0.00 0.00 0.00 0.00 0.00 0.00 0.00 0.00 0.00 0.01 0.01 0.01 0.01 0.01 0.01 0.00 0.00 0.00 0.00 0.00 0.01 0.01 0.02 0.04 0.05 0.09 0.11 0.10